Location: Mount Cross
(36.6390°N, 79.4878°W)
Time: 18:56:12
(UTC+00:00)

Courier 1B Rocket - Pass Details

Date: 24 March 2023
Orbit: 920 x 1202 km, 28.2° (Epoch: 05 June)

Event Time Altitude Azimuth Distance (km) Brightness Sun altitude
Rises 04:57:13 0° 261° (W) 3,637 - -51.5°
Reaches altitude 10° 05:00:06 10° 253° (WSW) 2,659 - -51.6°
Maximum altitude 05:05:48 35° 189° (S) 1,437 - -51.8°
Drops below altitude 10° 05:11:23 10° 125° (SE) 2,601 - -51.9°
Sets 05:14:11 0° 117° (ESE) 3,549 - -52.0°
